Regional Weather Roundup
Issued by NWS

Home | Current Version | Previous Version | Text Only | Print | Product List | Glossary Off
Versions: 1 2 3 4 5 6 7 8 9 10 11 12 13 14 15 16 17 18 19 20 21 22 23 24 25 26 27 28 29 30 31 32 33 34 35 36 37 38 39 40 41 42 43 44 45 46 47 48 49 50

000
ASUS43 KFSD 260610
RWRSD

WEATHER ROUNDUP FOR SOUTH DAKOTA
NATIONAL WEATHER SERVICE SIOUX FALLS SD
1200 AM CST MON JAN 26 2015

NOTE: "FAIR" INDICATES FEW OR NO CLOUDS BELOW 12,000 FEET WITH NO
SIGNIFICANT WEATHER AND/OR OBSTRUCTIONS TO VISIBILITY.


SDZ001>005-009-010-012>017-260700-
NORTHWEST AND NORTH CENTRAL SOUTH DAKOTA

CITY           SKY/WX    TMP DP  RH WIND       PRES   REMARKS
BUFFALO          N/A     38  32  79 W15       29.87R
FAITH            N/A     44  33  65 W17       29.87F
MOBRIDGE       MOCLDY    34  29  82 SE5       29.80F WCI  30
$$

SDZ012>016-024>037-041>051-057-063-072>074-260700-
SOUTHWEST AND SOUTH CENTRAL SOUTH DAKOTA

CITY           SKY/WX    TMP DP  RH WIND       PRES   REMARKS
RAPID CTY ARPT PTCLDY    45  31  58 NW10      29.95S
PIERRE         CLOUDY    34  28  79 W8        29.87S WCI  27
CUSTER         MOCLDY    48  27  44 NW12G28   30.04R
ELLSWORTH AFB  PTCLDY    51  32  47 NW10      29.94S
PHILIP         PTCLDY    36  27  69 W8        29.92S
PINE RIDGE     CLEAR     43  30  60 W8        30.02R
SPEARFISH      FAIR      52  30  43 W17       30.02S
WINNER         FAIR      41  29  62 SW12      29.90F
$$

SDZ004>011-016>023-039-040-260700-
NORTHEAST SOUTH DAKOTA

CITY           SKY/WX    TMP DP  RH WIND       PRES   REMARKS
ABERDEEN       PTCLDY    32  29  88 S12       29.83F WCI  23
WATERTOWN      CLOUDY    31  28  89 SW15      29.84F WCI  20
SISSETON         N/A     33  31  92 SW12      29.82F WCI  24
$$

SDZ017-020-022-023-036>040-048>070-260700-
SOUTHEAST SOUTH DAKOTA

CITY           SKY/WX    TMP DP  RH WIND       PRES   REMARKS
SIOUX FALLS    MOCLDY    32  30  92 SW6       29.94F WCI  26
HURON          PTCLDY    33  30  88 S12       29.88F WCI  24
CHAMBERLAIN    PTCLDY    32  30  92 S3        29.89F
MITCHELL       PTCLDY    34  32  92 S9        29.92F WCI  27
YANKTON        CLEAR     30  28  93 SW5       29.98F WCI  25
$$

ABBREVIATIONS USED IN REMARKS
   TC - TEMPERATURE IN CELSIUS
  WCI - WIND CHILL INDEX
   HX - HEAT INDEX
  VSB - VISIBILITY




USA.gov is the U.S. government's official web portal to all federal, state and local government web resources and services.